This is the latest recevied weather packets stored in our database for station/object EA6AMI-5. If no packets are shown the sender has not sent any weather packets the latest 10 day(s).
| Time | Temp. | Humidity | Pressure | Rain* | Wind** | Luminosity | Snow |
|---|---|---|---|---|---|---|---|
| 1787397483 | 28.33° C | 59% | 1016.9 hPa | 0 mm | - | 892 W/m² | - |
| 1787396944 | 28.89° C | 58% | 1017 hPa | 0 mm | - | 313 W/m² | - |
| 1787396403 | 28.33° C | 59% | 1017 hPa | 0 mm | - | 893 W/m² | - |
| 1787396044 | 28.33° C | 60% | 1017.1 hPa | 0 mm | - | 415 W/m² | - |
| 1787395503 | 28.33° C | 60% | 1017.2 hPa | 0 mm | - | 284 W/m² | - |
| 1787394963 | 28.89° C | 58% | 1017.3 hPa | 0 mm | - | 366 W/m² | - |
| 1787394423 | 28.33° C | 59% | 1017.4 hPa | 0 mm | - | 790 W/m² | - |
| 1787393883 | 28.33° C | 59% | 1017.4 hPa | 0 mm | - | 892 W/m² | - |
| 1787393343 | 28.33° C | 58% | 1017.3 hPa | 0 mm | - | 723 W/m² | - |
| 1787392803 | 28.33° C | 58% | 1017.4 hPa | 0 mm | - | 789 W/m² | - |
| 1787392444 | 28.33° C | 58% | 1017.6 hPa | 0 mm | - | 715 W/m² | - |
| 1787391903 | 27.78° C | 59% | 1017.5 hPa | 0 mm | - | 661 W/m² | - |
| 1787391363 | 27.78° C | 59% | 1017.4 hPa | 0 mm | - | 608 W/m² | - |
| 1787390823 | 27.78° C | 59% | 1017.5 hPa | 0 mm | - | 662 W/m² | - |
| 1787390283 | 27.22° C | 60% | 1017.5 hPa | 0 mm | - | 767 W/m² | - |
| 1787389744 | 27.78° C | 60% | 1017.3 hPa | 0 mm | - | 574 W/m² | - |
| 1787389203 | 27.22° C | 61% | 1017.2 hPa | 0 mm | - | 561 W/m² | - |
| 1787388843 | 27.22° C | 62% | 1017.4 hPa | 0 mm | - | 616 W/m² | - |
| 1787388304 | 26.67° C | 62% | 1017.3 hPa | 0 mm | - | 488 W/m² | - |
| 1787387763 | 26.67° C | 63% | 1017.2 hPa | 0 mm | - | 486 W/m² | - |
| 1787387223 | 26.67° C | 64% | 1017.3 hPa | 0 mm | - | 498 W/m² | - |
| 1787386683 | 26.67° C | 63% | 1017.2 hPa | 0 mm | - | 432 W/m² | - |
| 1787386143 | 26.11° C | 64% | 1017.2 hPa | 0 mm | - | 419 W/m² | - |
| 1787385603 | 25° C | 68% | 1017.2 hPa | 0 mm | - | 412 W/m² | - |
| 1787385243 | 25° C | 69% | 1017 hPa | 0 mm | - | 327 W/m² | - |
* Rain latest hour (hover to see other rain measurements)
** Current wind speed in m/s (hover to see current wind gust speed)